Volver al catálogo

FENGYUN 1C DEB

ActivoPO
NORAD 37028·DEBRIS·🇨🇳 China

Lanzado May 10, 1999 desde Taiyuan Satellite Launch Center

Loading…

Próximos Pases (próximas 24 horas)

TLE

ActualizadoSource: Space-Track

Época: Sep 14, 2026, 14:14 UTC

1 37028U 99025EDL 26257.59374840  .00002399  00000-0  10448-2 0  9999
2 37028  99.2408 184.3592 0035577  34.2751 326.0712 14.24686110644014

Sigue FENGYUN 1C DEB en tiempo real con AllMySat

Download on the App Store